Weather History for KBXK - September, 2012

Change the Weather History Date:

Tuesday, September 18, 2012

  Actual Average (KGYR) Record (KGYR)
Temperature  
Mean Temperature 86 °F -  
Max Temperature 98 °F 96 °F 107 °F (2010)
Min Temperature 75 °F 70 °F 64 °F (2005)
Cooling Degree Days 22    
Growing Degree Days 36 (Base 50)    
Moisture  
Dew Point 51 °F    
Average Humidity 31    
Maximum Humidity 57    
Minimum Humidity 13    
Precipitation  
Precipitation 0.00 in - - ()
Sea Level Pressure  
Sea Level Pressure 29.93 in    
Wind  
Wind Speed 4 mph (SSW)    
Max Wind Speed 14 mph    
Max Gust Speed -    
Visibility 10 miles    
Events      
Averages and records for this station are not official NWS values.
T = Trace of Precipitation, MM = Missing Value Source: NWS Daily Summary

Daily Weather History Graph

Daily Weather History Graph

Search for Another Location

Airport or City:

Trip Planner

Search our weather history database for the weather conditions in past years. The results will help you decide how hot, cold, wet, or windy it might be!

Date:

Astronomy

Sep. 18, 2012 Rise Set
Actual Time 6:16 AM MST 6:32 PM MST
Civil Twilight 5:51 AM MST 6:56 PM MST
Nautical Twilight 5:22 AM MST 7:25 PM MST
Astronomical Twilight 4:53 AM MST 7:55 PM MST
Moon 9:08 AM MST (9/18) 8:11 PM MST (9/18)
Length of Visible Light 13h 05m
Length of Day
12h 15m
Waxing Crescent, 10% of the Moon is Illuminated
Sep 18
Waxing Crescent
Sep 22
First Quarter
Sep 29
Full
Oct 8
Last Quarter
Oct 15
New

Hourly Weather History & Observations

Time (MST) Temp. Heat Index Dew Point Humidity Pressure Visibility Wind Dir Wind Speed Gust Speed Precip Events Conditions
12:15 AM 80.6 °F 80.3 °F 53.6 °F 39% 29.92 in 10.0 mi Calm Calm - N/A   Clear
12:35 AM 78.8 °F - 53.6 °F 42% 29.92 in 10.0 mi Calm Calm - N/A   Clear
1:15 AM 78.8 °F - 53.6 °F 42% 29.92 in 10.0 mi WNW 3.5 mph - N/A   Clear
1:35 AM 78.8 °F - 53.6 °F 42% 29.92 in 10.0 mi NW 3.5 mph - N/A   Clear
1:55 AM 78.8 °F - 53.6 °F 42% 29.92 in 10.0 mi NNW 3.5 mph - N/A   Clear
2:15 AM 77.0 °F - 53.6 °F 44% 29.93 in 10.0 mi NNW 3.5 mph - N/A   Clear
2:35 AM 77.0 °F - 53.6 °F 44% 29.92 in 10.0 mi NW 3.5 mph - N/A   Clear
2:55 AM 77.0 °F - 55.4 °F 47% 29.92 in 10.0 mi NW 3.5 mph - N/A   Clear
3:15 AM 75.2 °F - 55.4 °F 50% 29.92 in 10.0 mi NW 4.6 mph - N/A   Clear
3:35 AM 75.2 °F - 55.4 °F 50% 29.92 in 10.0 mi WNW 4.6 mph - N/A   Clear
3:55 AM 75.2 °F - 57.2 °F 53% 29.93 in 10.0 mi NW 3.5 mph - N/A   Clear
7:55 AM 78.8 °F - 62.6 °F 57% 29.98 in 10.0 mi East 3.5 mph - N/A   Clear
8:15 AM 82.4 °F 83.9 °F 64.4 °F 54% 29.99 in 10.0 mi SE 4.6 mph - N/A   Clear
8:35 AM 84.2 °F 85.0 °F 62.6 °F 48% 29.99 in 10.0 mi South 5.8 mph - N/A   Clear
8:55 AM 84.2 °F 83.8 °F 59.0 °F 42% 30.00 in 10.0 mi SSE 4.6 mph - N/A   Clear
9:15 AM 86.0 °F 85.4 °F 59.0 °F 40% 30.00 in 10.0 mi SE 8.1 mph - N/A   Clear
9:35 AM 86.0 °F 84.9 °F 57.2 °F 37% 29.99 in 10.0 mi East 6.9 mph - N/A   Clear
9:55 AM 87.8 °F 86.1 °F 55.4 °F 33% 30.00 in 10.0 mi SE 5.8 mph - N/A   Clear
10:15 AM 86.0 °F 84.9 °F 57.2 °F 37% 30.00 in 10.0 mi SSE 5.8 mph - N/A   Clear
10:35 AM 87.8 °F 86.5 °F 57.2 °F 35% 29.99 in 10.0 mi SE 4.6 mph - N/A   Clear
10:55 AM 87.8 °F 87.1 °F 59.0 °F 38% 29.99 in 10.0 mi SE 4.6 mph - N/A   Clear
11:15 AM 89.6 °F 88.1 °F 57.2 °F 33% 29.99 in 10.0 mi SSE 5.8 mph - N/A   Clear
11:35 AM 89.6 °F 88.1 °F 57.2 °F 33% 29.99 in 10.0 mi SE 5.8 mph - N/A   Clear
11:55 AM 91.4 °F 89.4 °F 55.4 °F 29% 29.98 in 10.0 mi Calm Calm - N/A   Clear
12:15 PM 91.4 °F 89.9 °F 57.2 °F 31% 29.98 in 10.0 mi NE 3.5 mph - N/A   Clear
12:35 PM 93.2 °F 91.9 °F 57.2 °F 30% 29.97 in 10.0 mi SSW 5.8 mph - N/A   Clear
12:55 PM 93.2 °F 91.3 °F 55.4 °F 28% 29.96 in 10.0 mi South 6.9 mph - N/A   Clear
1:15 PM 95.0 °F - 51.8 °F 23% 29.95 in 10.0 mi SSW 4.6 mph - N/A   Clear
1:35 PM 95.0 °F - 50.0 °F 22% 29.94 in 10.0 mi SSW 5.8 mph - N/A   Clear
1:55 PM 95.0 °F - 50.0 °F 22% 29.93 in 10.0 mi South 4.6 mph - N/A   Clear
2:15 PM 96.8 °F - 46.4 °F 18% 29.92 in 10.0 mi South 4.6 mph - N/A   Clear
2:55 PM 98.6 °F - 44.6 °F 16% 29.90 in 10.0 mi South 3.5 mph - N/A   Clear
3:15 PM 98.6 °F - 41.0 °F 14% 29.90 in 10.0 mi SSW 4.6 mph - N/A   Clear
3:35 PM 98.6 °F - 41.0 °F 14% 29.89 in 10.0 mi South 4.6 mph - N/A   Clear
3:55 PM 98.6 °F - 39.2 °F 13% 29.89 in 10.0 mi SSW 4.6 mph - N/A   Clear
4:15 PM 98.6 °F - 42.8 °F 15% 29.89 in 10.0 mi South 5.8 mph - N/A   Clear
4:35 PM 98.6 °F - 41.0 °F 14% 29.89 in 10.0 mi SSE 4.6 mph - N/A   Clear
4:55 PM 98.6 °F - 44.6 °F 16% 29.88 in 10.0 mi South 5.8 mph - N/A   Clear
5:15 PM 98.6 °F - 44.6 °F 16% 29.88 in 10.0 mi South 3.5 mph - N/A   Clear
5:35 PM 98.6 °F - 44.6 °F 16% 29.88 in 10.0 mi South 4.6 mph - N/A   Clear
5:55 PM 95.0 °F - 50.0 °F 22% 29.88 in 10.0 mi South 4.6 mph - N/A   Clear
6:15 PM 95.0 °F - 48.2 °F 20% 29.88 in 10.0 mi South 4.6 mph - N/A   Clear
6:35 PM 91.4 °F - 51.8 °F 26% 29.88 in 10.0 mi SSW 4.6 mph - N/A   Clear
6:55 PM 89.6 °F - 50.0 °F 26% 29.88 in 10.0 mi WSW 4.6 mph - N/A   Clear
7:15 PM 87.8 °F - 48.2 °F 25% 29.89 in 10.0 mi West 3.5 mph - N/A   Clear
7:35 PM 87.8 °F - 48.2 °F 25% 29.90 in 10.0 mi Calm Calm - N/A   Clear
7:55 PM 89.6 °F - 46.4 °F 22% 29.90 in 10.0 mi SSW 3.5 mph - N/A   Clear
8:15 PM 86.0 °F - 46.4 °F 25% 29.90 in 10.0 mi Calm Calm - N/A   Clear
8:55 PM 84.2 °F - 48.2 °F 29% 29.91 in 10.0 mi North 13.8 mph - N/A   Clear
9:35 PM 84.2 °F - 46.4 °F 27% 29.91 in 10.0 mi NW 8.1 mph - N/A   Clear
9:55 PM 84.2 °F - 46.4 °F 27% 29.91 in 10.0 mi NNW 5.8 mph - N/A   Clear
10:15 PM 80.6 °F - 46.4 °F 30% 29.91 in 10.0 mi NNW 9.2 mph - N/A   Clear
10:55 PM 77.0 °F - 50.0 °F 39% 29.91 in 10.0 mi NNW 5.8 mph - N/A   Clear
11:15 PM 77.0 °F - 48.2 °F 36% 29.91 in 10.0 mi NNW 6.9 mph - N/A   Clear
11:35 PM 78.8 °F - 46.4 °F 32% 29.92 in 10.0 mi NNW 5.8 mph - N/A   Clear
11:55 PM 78.8 °F - 46.4 °F 32% 29.92 in 10.0 mi NNW 4.6 mph - N/A   Clear